Weather History for New Iberia, LA

Change the Weather History Date:

Saturday, August 31, 2013

  Actual Average Record
Temperature  
Mean Temperature 85 °F 82 °F  
Max Temperature 96 °F 91 °F 103 °F (2000)
Min Temperature 74 °F 73 °F 64 °F (1968)
Degree Days  
Heating Degree Days 0 0  
Month to date heating degree days 0 0  
Since 1 June heating degree days 0 0  
Since 1 July heating degree days 0 0  
Cooling Degree Days 20 17  
Month to date cooling degree days 609 555  
Year to date cooling degree days 2320 2143  
Since 1 June cooling degree days 1739 1573  
Growing Degree Days 35 (Base 50)    
Moisture  
Dew Point 72 °F    
Average Humidity 65    
Maximum Humidity 87    
Minimum Humidity 43    
Precipitation  
Precipitation 0.00 in 0.18 in 0.68 in (1952)
Month to date precipitation 3.99 5.08  
Year to date precipitation 53.07 40.85  
Sea Level Pressure  
Sea Level Pressure 29.94 in    
Wind  
Wind Speed 3 mph (SSW)    
Max Wind Speed 12 mph    
Max Gust Speed 16 mph    
Visibility 7 miles    
Events Fog    
T = Trace of Precipitation, MM = Missing Value Source: NWS Daily Summary

Daily Weather History Graph

Daily Weather History Graph

Search for Another Location

Airport:

Trip Planner

Search our weather history database for the weather conditions in past years. The results will help you decide how hot, cold, wet, or windy it might be!

Date:

Astronomy

Aug. 31, 2013 Rise Set
Actual Time 6:44 AM CDT 7:30 PM CDT
Civil Twilight 6:19 AM CDT 7:55 PM CDT
Nautical Twilight 5:50 AM CDT 8:23 PM CDT
Astronomical Twilight 5:21 AM CDT 8:53 PM CDT
Moon 2:25 AM CDT (8/31) 4:18 PM CDT (8/31)
Length of Visible Light 13h 35m
Length of Day
12h 46m
Waning Crescent, 21% of the Moon is Illuminated
Aug 31
Waning Crescent
Sep 5
New
Sep 12
First Quarter
Sep 19
Full
Sep 26
Last Quarter

Hourly Weather History & Observations

Time (CDT) Temp. Heat Index Dew Point Humidity Pressure Visibility Wind Dir Wind Speed Gust Speed Precip Events Conditions
12:53 AM 75.9 °F - 71.1 °F 85% 29.95 in 6.0 mi Calm Calm - N/A   Haze
1:53 AM 75.0 °F - 71.1 °F 87% 29.94 in 4.0 mi Calm Calm - N/A   Clear
2:47 AM 75.2 °F - 69.8 °F 83% 29.94 in 1.5 mi Calm Calm - N/A   Haze
2:48 AM 75.0 °F - 71.1 °F 87% 29.94 in 1.0 mi Calm Calm - N/A   Clear
2:55 AM 75.2 °F - 71.6 °F 89% 29.94 in 0.5 mi Calm Calm - N/A Fog Fog
3:04 AM 75.2 °F - 71.6 °F 89% 29.94 in 2.5 mi Calm Calm - N/A   Clear
3:11 AM 75.2 °F - 71.6 °F 89% 29.94 in 4.0 mi Calm Calm - N/A   Clear
3:53 AM 75.9 °F - 71.1 °F 85% 29.94 in 7.0 mi Calm Calm - N/A   Partly Cloudy
4:53 AM 75.0 °F - 71.1 °F 87% 29.94 in 4.0 mi Calm Calm - N/A   Partly Cloudy
5:53 AM 75.0 °F - 71.1 °F 87% 29.95 in 5.0 mi Calm Calm - N/A   Partly Cloudy
6:53 AM 75.0 °F - 70.0 °F 84% 29.96 in 4.0 mi Calm Calm - N/A   Haze
7:53 AM 78.1 °F - 73.0 °F 84% 29.98 in 4.0 mi Calm Calm - N/A   Haze
8:53 AM 84.0 °F 91.9 °F 75.0 °F 74% 29.99 in 10.0 mi Calm Calm - N/A   Partly Cloudy
9:53 AM 88.0 °F 97.5 °F 75.0 °F 65% 30.00 in 10.0 mi North 3.5 mph - N/A   Scattered Clouds
10:53 AM 89.1 °F 98.0 °F 73.9 °F 61% 29.99 in 10.0 mi NW 4.6 mph - N/A   Mostly Cloudy
11:53 AM 91.0 °F 98.2 °F 72.0 °F 53% 29.97 in 10.0 mi ENE 4.6 mph - N/A   Clear
12:53 PM 93.0 °F 100.7 °F 72.0 °F 50% 29.96 in 10.0 mi East 5.8 mph - N/A   Partly Cloudy
1:53 PM 95.0 °F 103.2 °F 72.0 °F 47% 29.94 in 10.0 mi Calm Calm - N/A   Mostly Cloudy
2:53 PM 95.0 °F 101.3 °F 70.0 °F 44% 29.91 in 10.0 mi Variable 4.6 mph - N/A   Partly Cloudy
3:53 PM 95.0 °F 103.2 °F 72.0 °F 47% 29.89 in 10.0 mi SSW 9.2 mph - N/A   Partly Cloudy
4:53 PM 93.9 °F 102.1 °F 72.0 °F 49% 29.88 in 10.0 mi SW 5.8 mph - N/A   Scattered Clouds
5:53 PM 91.9 °F 100.7 °F 73.0 °F 54% 29.88 in 10.0 mi South 6.9 mph - N/A   Partly Cloudy
6:53 PM 89.1 °F 98.0 °F 73.9 °F 61% 29.88 in 10.0 mi South 8.1 mph - N/A   Partly Cloudy
7:53 PM 86.0 °F 93.8 °F 73.9 °F 67% 29.89 in 10.0 mi South 6.9 mph - N/A   Mostly Cloudy
8:53 PM 82.9 °F 89.4 °F 73.9 °F 74% 29.91 in 10.0 mi SSW 3.5 mph - N/A   Scattered Clouds
9:53 PM 82.0 °F 87.9 °F 73.9 °F 76% 29.91 in 10.0 mi SW 3.5 mph - N/A   Clear
10:53 PM 80.1 °F 84.5 °F 73.9 °F 81% 29.92 in 10.0 mi Calm Calm - N/A   Clear
11:53 PM 80.1 °F 85.1 °F 75.0 °F 85% 29.91 in 10.0 mi Calm Calm - N/A   Clear